This is the latest recevied weather packets stored in our database for station/object K5RWS. If no packets are shown the sender has not sent any weather packets the latest 10 day(s).
| Time | Temp. | Humidity | Pressure | Rain* | Wind** | Luminosity | Snow |
|---|---|---|---|---|---|---|---|
| 1777650936 | 12.22° C | 62% | 1020.3 hPa | 0 mm | - | 443 W/m² | - |
| 1777650633 | 11.67° C | 62% | 1020.1 hPa | 0 mm | - | 393 W/m² | - |
| 1777650330 | 11.67° C | 65% | 1020 hPa | 0 mm | - | 634 W/m² | - |
| 1777650026 | 11.11° C | 64% | 1020 hPa | 0 mm | - | 349 W/m² | - |
| 1777649719 | 10.56° C | 66% | 1019.8 hPa | 0 mm | - | 354 W/m² | - |
| 1777649415 | 11.67° C | 71% | 1020 hPa | 0 mm | - | 332 W/m² | - |
| 1777649112 | 11.67° C | 71% | 1020 hPa | 0 mm | - | 273 W/m² | - |
| 1777648810 | 11.11° C | 74% | 1020 hPa | 0 mm | - | 419 W/m² | - |
| 1777648506 | 10.56° C | 74% | 1019.8 hPa | 0 mm | - | 282 W/m² | - |
| 1777648203 | 10.56° C | 76% | 1019.8 hPa | 0 mm | - | 250 W/m² | - |
| 1777647898 | 10.56° C | 74% | 1020 hPa | 0 mm | - | 204 W/m² | - |
| 1777647595 | 10.56° C | 72% | 1019.6 hPa | 0 mm | - | 150 W/m² | - |
| 1777647291 | 10.56° C | 72% | 1019.7 hPa | 0 mm | - | 104 W/m² | - |
| 1777646990 | 10° C | 72% | 1019.6 hPa | 0 mm | - | 111 W/m² | - |
| 1777646685 | 10° C | 73% | 1019.7 hPa | 0 mm | - | 97 W/m² | - |
| 1777646381 | 10° C | 69% | 1019.7 hPa | 0 mm | - | 78 W/m² | - |
| 1777646077 | 10° C | 70% | 1019.5 hPa | 0 mm | - | 86 W/m² | - |
| 1777645774 | 10° C | 72% | 1019.5 hPa | 0 mm | - | 87 W/m² | - |
| 1777645472 | 10° C | 71% | 1019.4 hPa | 0 mm | - | 101 W/m² | - |
| 1777645167 | 10° C | 73% | 1019.3 hPa | 0 mm | - | 98 W/m² | - |
| 1777644863 | 9.44° C | 74% | 1019.3 hPa | 0 mm | - | 124 W/m² | - |
| 1777644561 | 10° C | 73% | 1019.3 hPa | 0 mm | - | 110 W/m² | - |
| 1777644257 | 9.44° C | 74% | 1019.3 hPa | 0 mm | - | 241 W/m² | - |
| 1777643954 | 10° C | 72% | 1019.4 hPa | 0 mm | - | 152 W/m² | - |
| 1777643651 | 10° C | 75% | 1019.1 hPa | 0 mm | - | 217 W/m² | - |
* Rain latest hour (hover to see other rain measurements)
** Current wind speed in m/s (hover to see current wind gust speed)